Flag for Italy Weather past 2 weeks in Palermo, Italy

Now
50 °F

Rain. Partly sunny.


Feels Like: 45 °F
Forecast: 47 / 54 °F
Wind: 13 mph from Northeast

Location: Palermo / Punta Raisi

Current Time: Jan 31, 2015 at 10:38:39 AM

Latest Report: Jan 31, 2015 at 9:50 AM


Visibility: 2 mi

Pressure: 29.24 "Hg

Humidity: 100%

Dew point: 50 °F

Location of PalermoLocation

Historic Weather in Palermo — Graph

°F

Palermo temperature yesterday

Maximum temperature yesterday: 59 °F (at 10:20 AM)
Minimum temperature yesterday: 55 °F (at 12:20 AM)
Average temperature yesterday: 57 °F

Past Weeks' High & Low Weather Summary

 TemperatureHumidityPressure
High68 °F (Jan 16, 11:50 AM)100% (Jan 31, 9:20 AM)30.15 "Hg (Jan 31, 9:20 AM)
Low45 °F (Jan 28, 1:50 PM)35% (Jan 16, 10:50 AM)29.21 "Hg (Jan 31, 9:20 AM)
Average55 °F75%29.82 "Hg
* Reported Jan 16 9:20 AM — Jan 31 9:20 AM, Palermo, Weather by CustomWeather, © 2014

Note: Actual official high and low records may vary slightly from our data, if they occured in-between our weather recording intervals... More about our weather records

Advertising

Palermo weather history for previous 24 hours

 ConditionsComfort  
Time TempWeatherWind HumidityBarometerVisibility
9:20 AM
Jan 31
50 °FLight rain. Partly sunny.8 mph100%29.21 "Hg4 mi
8:50 AM52 °FRain. Partly sunny.6 mph94%29.24 "Hg2 mi
8:20 AM50 °FLight rain. Partly sunny.7 mph94%29.24 "Hg5 mi
7:50 AM52 °FRain. Partly sunny.2 mph88%29.27 "Hg2 mi
7:20 AM52 °FLight rain. Scattered clouds.9 mph88%29.27 "HgN/A
6:50 AM52 °FLight rain. Passing clouds.12 mph88%29.27 "HgN/A
6:20 AM52 °FLight rain. Partly cloudy.12 mph88%29.27 "HgN/A
5:50 AM52 °FLight rain. Passing clouds.13 mph88%29.30 "HgN/A
5:20 AM52 °FLight rain. Passing clouds.13 mph88%29.33 "Hg5 mi
4:50 AM50 °FLight rain. Passing clouds.14 mph94%29.33 "HgN/A
3:50 AM50 °FRain. Passing clouds.14 mph94%29.33 "Hg4 mi
3:20 AM50 °FRain. Passing clouds.17 mph94%29.36 "Hg6 mi
2:20 AM52 °FRain. Passing clouds.22 mph88%29.36 "HgN/A
1:50 AM52 °FLight rain. Passing clouds.20 mph88%29.36 "HgN/A
1:20 AM52 °FLight rain. Passing clouds.22 mph88%29.36 "HgN/A
12:50 AM54 °FPassing clouds.21 mph82%29.39 "HgN/A
12:20 AM54 °FLight rain. Passing clouds.26 mph88%29.39 "HgN/A
11:50 PM
Jan 30
55 °FPassing clouds.29 mph77%29.39 "HgN/A
11:20 PM55 °FPassing clouds.29 mph82%29.39 "HgN/A
10:50 PM55 °FPassing clouds.28 mph82%29.39 "HgN/A
10:20 PM55 °FPassing clouds.26 mph77%29.39 "HgN/A
9:50 PM55 °FPassing clouds.22 mph82%29.39 "HgN/A
9:20 PM57 °FPassing clouds.23 mph77%29.36 "HgN/A
8:50 PM55 °FPassing clouds.21 mph82%29.39 "HgN/A
8:20 PM57 °FPassing clouds.24 mph82%29.39 "HgN/A
7:50 PM57 °FPassing clouds.23 mph77%29.36 "HgN/A
7:20 PM57 °FPassing clouds.23 mph77%29.36 "HgN/A
6:50 PM55 °FLight rain. Passing clouds.17 mph82%29.36 "HgN/A
6:20 PM55 °FRain. Passing clouds.22 mph88%29.36 "Hg5 mi
5:50 PM57 °FLight rain. Passing clouds.26 mph82%29.33 "Hg5 mi
5:20 PM59 °FLight rain. Partly sunny.24 mph82%29.33 "HgN/A
4:50 PM59 °FPartly sunny.20 mph77%29.30 "HgN/A
4:20 PM59 °FLight rain. Partly sunny.25 mph82%29.30 "HgN/A
3:50 PM57 °FLight rain. Scattered clouds.31 mph94%29.30 "Hg5 mi
3:20 PM59 °FRain. Partly sunny.32 mph88%29.30 "Hg4 mi
2:50 PM59 °FBroken clouds.30 mph88%29.30 "Hg6 mi
2:20 PM59 °FLight rain. Partly sunny.26 mph82%29.30 "Hg5 mi
1:50 PM57 °FLight rain. Partly sunny.26 mph88%29.30 "Hg4 mi
1:20 PM57 °FLight rain. Partly sunny.30 mph82%29.30 "HgN/A
12:50 PM57 °FLight rain. Partly sunny.29 mph82%29.30 "Hg6 mi
12:20 PM57 °FLight rain. Partly sunny.26 mph77%29.33 "Hg6 mi
11:50 AM59 °FScattered clouds.30 mph72%29.33 "HgN/A
11:20 AM59 °FScattered clouds.33 mph72%29.33 "HgN/A
10:50 AM59 °FScattered clouds.35 mph72%29.33 "HgN/A
10:20 AM59 °FScattered clouds.33 mph72%29.36 "HgN/A
Weather by CustomWeather, © 2014

See weather overviewHow to use our weather pages